Alma, GA

4:47 PM EST on January 17, 2017 (GMT -0500)
Bacon County

Weather History for KAMG - April, 2013

Change the Weather History Date:

Tuesday, April 23, 2013

  Actual Average Record
Temperature  
Mean Temperature 64 °F 68 °F  
Max Temperature 77 °F 80 °F 94 °F (1968)
Min Temperature 50 °F 55 °F 36 °F (1993)
Degree Days  
Heating Degree Days 1 1  
Month to date heating degree days 63 56  
Since 1 July heating degree days 1590 1645  
Cooling Degree Days 0 4  
Month to date cooling degree days 52 67  
Year to date cooling degree days 85 121  
Growing Degree Days 13 (Base 50)    
Moisture  
Dew Point 49 °F    
Average Humidity 66    
Maximum Humidity 96    
Minimum Humidity 36    
Precipitation  
Precipitation 0.00 in 0.08 in 3.82 in (1984)
Month to date precipitation 2.90 2.29  
Year to date precipitation 15.30 15.10  
Snow  
Snow 0.00 in 0.00 in 0.00 in ()
Month to date snowfall 0.0 0.0  
Since 1 July snowfall T 0.1  
Snow Depth 0.00 in    
Sea Level Pressure  
Sea Level Pressure 30.15 in    
Wind  
Wind Speed 4 mph (ENE)    
Max Wind Speed 10 mph    
Max Gust Speed 15 mph    
Visibility 10 miles    
Events      
T = Trace of Precipitation, MM = Missing Value Source: NWS Daily Summary

Daily Weather History Graph

Daily Weather History Graph

Search for Another Location

Airport or City:

Trip Planner

Search our weather history database for the weather conditions in past years. The results will help you decide how hot, cold, wet, or windy it might be!

Date:

Astronomy

Apr. 23, 2013 Rise Set
Actual Time 6:52 AM EDT 8:04 PM EDT
Civil Twilight 6:27 AM EDT 8:29 PM EDT
Nautical Twilight 5:57 AM EDT 9:00 PM EDT
Astronomical Twilight 5:25 AM EDT 9:31 PM EDT
Moon 6:04 PM EDT (4/23) 5:11 AM EDT (4/23)
Length of Visible Light 14h 02m
Length of Day
13h 11m
Waxing Gibbous, 94% of the Moon is Illuminated
Apr 23
Waxing Gibbous
Apr 25
Full
May 2
Last Quarter
May 9
New
May 18
First Quarter

Hourly Weather History & Observations

Time (EDT) Temp. Dew Point Humidity Pressure Visibility Wind Dir Wind Speed Gust Speed Precip Events Conditions
12:53 AM 52.0 °F 50.0 °F 93% 30.18 in 10.0 mi Calm Calm - N/A   Clear
1:53 AM 52.0 °F 48.9 °F 89% 30.16 in 10.0 mi Calm Calm - N/A   Clear
2:53 AM 54.0 °F 46.9 °F 77% 30.14 in 10.0 mi Calm Calm - N/A   Clear
3:53 AM 53.1 °F 46.0 °F 77% 30.13 in 10.0 mi Calm Calm - N/A   Clear
4:53 AM 52.0 °F 45.0 °F 77% 30.13 in 10.0 mi NNE 3.5 mph - N/A   Clear
5:53 AM 51.1 °F 45.0 °F 80% 30.14 in 10.0 mi Variable 3.5 mph - N/A   Clear
6:53 AM 51.1 °F 45.0 °F 80% 30.17 in 10.0 mi North 3.5 mph - N/A   Clear
7:53 AM 53.1 °F 46.0 °F 77% 30.19 in 10.0 mi Variable 3.5 mph - N/A   Clear
8:53 AM 55.9 °F 46.9 °F 72% 30.20 in 10.0 mi Variable 5.8 mph - N/A   Clear
9:53 AM 60.1 °F 48.9 °F 67% 30.20 in 10.0 mi Variable 3.5 mph - N/A   Clear
10:53 AM 64.0 °F 48.0 °F 56% 30.20 in 10.0 mi Variable 3.5 mph - N/A   Clear
11:53 AM 66.9 °F 46.9 °F 49% 30.19 in 10.0 mi Variable 3.5 mph - N/A   Clear
12:53 PM 70.0 °F 46.9 °F 44% 30.18 in 10.0 mi Variable 4.6 mph - N/A   Clear
1:53 PM 72.0 °F 48.0 °F 43% 30.15 in 10.0 mi Variable 3.5 mph - N/A   Clear
2:53 PM 73.0 °F 48.9 °F 42% 30.14 in 10.0 mi Calm Calm - N/A   Clear
3:53 PM 75.0 °F 48.0 °F 38% 30.12 in 10.0 mi Calm Calm - N/A   Clear
4:53 PM 75.9 °F 46.0 °F 35% 30.11 in 10.0 mi North 8.1 mph - N/A   Clear
5:53 PM 75.9 °F 48.0 °F 37% 30.09 in 10.0 mi ENE 5.8 mph - N/A   Clear
6:53 PM 75.0 °F 48.9 °F 40% 30.09 in 10.0 mi Variable 4.6 mph - N/A   Clear
7:53 PM 69.1 °F 51.1 °F 53% 30.09 in 10.0 mi Calm Calm - N/A   Clear
8:53 PM 66.0 °F 55.9 °F 70% 30.12 in 10.0 mi ESE 5.8 mph - N/A   Clear
9:53 PM 63.0 °F 55.0 °F 75% 30.15 in 10.0 mi ESE 9.2 mph - N/A   Clear
10:53 PM 60.1 °F 54.0 °F 80% 30.16 in 10.0 mi ESE 5.8 mph - N/A   Clear
11:53 PM 57.9 °F 54.0 °F 87% 30.16 in 10.0 mi SE 4.6 mph - N/A   Clear